Air Resources Laboratory banner image
Air Resources Laboratory web site National Oceanic and Atmospheric Administration (NOAA)

pa roundup


Office: CTP

ASUS41 KCTP 180403
RWRCTP

REGIONAL WEATHER ROUNDUP
NATIONAL WEATHER SERVICE STATE COLLEGE PA
1200 AM EDT SAT AUG 18 2018

Note: "fair" indicates few or no clouds below 12,000 feet with no
significant weather and/or obstructions to visibility.

* = STATION THAT DOES NOT REPORT PRECIPITATION /E.G. RAIN...SNOW...ETC/
    THUNDER OR FOG.

PAZ002>004-007>009-013>016-020>023-029>032-180500-
WESTERN PENNSYLVANIA

CITY           SKY/WX    TMP DP  RH WIND       PRES   REMARKS
ERIE           FAIR      74  68  81 S8        29.90F
MEADVILLE      MOCLDY    70  70 100 VRB3      29.96S
FRANKLIN*      CLOUDY    69  68  96 SW8       29.98F
NEW CASTLE     MOCLDY    70  70 100 VRB3      29.97F
BEAVER COUNTY  NOT AVBL
BUTLER*        CLOUDY    68  67  96 SW5       29.99S
PITTSBURGH INT CLOUDY    67  67 100 S5        29.98F
PITTSBURGH     CLOUDY    67  66  97 S9        29.99S
INDIANA*       CLOUDY    68  68 100 CALM      30.03F
LATROBE        MOCLDY    68  68 100 CALM      30.00F
WASHINGTON CO* CLOUDY    68  67  96 SW3       30.02F
$$

PAZ004>006-010>012-017>019-024>028-033>037-041-042-045-046-049>053-180500-
CENTRAL PENNSYLVANIA

CITY           SKY/WX    TMP DP  RH WIND       PRES   REMARKS
BRADFORD       LGT RAIN  67  65  93 SW6       30.01S
DUBOIS         CLOUDY    68  68 100 SW6       29.99F FOG
CLEARFIELD     MOCLDY    70  69  97 S3        29.99F
JOHNSTOWN      MOCLDY    66  64  93 SW6       30.04S
ALTOONA        FAIR      71  67  87 CALM      30.01S
STATE COLLEGE  NOT AVBL
WILLIAMSPORT   LGT RAIN  74  71  91 E3        29.92S
SELINSGROVE    MOCLDY    73  72  96 CALM      29.94F
FT INDIANTOWN  FAIR      72  72 100 CALM      29.95F
CAPITAL CITY   FAIR      77  71  82 N3        29.94F
HARRISBURG     CLOUDY    73  71  93 CALM      29.93F
YORK           FAIR      72  70  93 CALM      29.95F
$$

PAZ038>040-043-044-047-048-054-055-060>062-067>071-180500-
EASTERN PENNSYLVANIA

CITY           SKY/WX    TMP DP  RH WIND       PRES   REMARKS
SCRANTON       MOCLDY    73  71  93 W5        29.95F
MOUNT POCONO   FAIR      68  68 100 W7        29.99F
ALLENTOWN      FAIR      72  69  90 SW5       29.93F
QUAKERTOWN*    CLEAR     72  72 100 CALM      29.95F
READING        MOCLDY    72  72 100 SW3       29.93F
LANCASTER      LGT RAIN  74  73  97 CALM      29.95F
COATESVILLE    FAIR      75  70  83 W8G15     29.99R
POTTSTOWN      FAIR      71  71 100 CALM      29.95F
BLUE BELL      FAIR      72  72 100 CALM      29.95F
DOYLESTOWN     FAIR      74  72  93 CALM      29.94S
WILLOW GROVE   NOT AVBL
NORTH PHILA    FAIR      84  74  71 SW7       29.94S
PHILADELPHIA   MOCLDY    82  74  76 SW10      29.93F
$$


ASUS41 KCTP 180410
RWRCTP

REGIONAL WEATHER ROUNDUP
NATIONAL WEATHER SERVICE STATE COLLEGE PA
1200 AM EDT SAT AUG 18 2018

Note: "fair" indicates few or no clouds below 12,000 feet with no
significant weather and/or obstructions to visibility.

* = STATION THAT DOES NOT REPORT PRECIPITATION /E.G. RAIN...SNOW...ETC/
    THUNDER OR FOG.

PAZ002>004-007>009-013>016-020>023-029>032-180500-
WESTERN PENNSYLVANIA

CITY           SKY/WX    TMP DP  RH WIND       PRES   REMARKS
ERIE           FAIR      74  68  81 S8        29.90F
MEADVILLE      MOCLDY    70  70 100 VRB3      29.96S
FRANKLIN*      CLOUDY    69  68  96 SW8       29.98F
NEW CASTLE     MOCLDY    70  70 100 VRB3      29.97F
BEAVER COUNTY  NOT AVBL
BUTLER*        CLOUDY    68  67  96 SW5       29.99S
PITTSBURGH INT CLOUDY    67  67 100 S5        29.98F
PITTSBURGH     CLOUDY    67  66  97 S9        29.99S
INDIANA*       CLOUDY    68  68 100 CALM      30.03F
LATROBE        MOCLDY    68  68 100 CALM      30.00F
WASHINGTON CO* CLOUDY    68  67  96 SW3       30.02F
$$

PAZ004>006-010>012-017>019-024>028-033>037-041-042-045-046-049>053-180500-
CENTRAL PENNSYLVANIA

CITY           SKY/WX    TMP DP  RH WIND       PRES   REMARKS
BRADFORD       LGT RAIN  67  65  93 SW6       30.01S
DUBOIS         CLOUDY    68  68 100 SW6       29.99F FOG
CLEARFIELD     MOCLDY    70  69  97 S3        29.99F
JOHNSTOWN      MOCLDY    66  64  93 SW6       30.04S
ALTOONA        FAIR      71  67  87 CALM      30.01S
STATE COLLEGE  NOT AVBL
WILLIAMSPORT   LGT RAIN  74  71  91 E3        29.92S
SELINSGROVE    MOCLDY    73  72  96 CALM      29.95S
FT INDIANTOWN  FAIR      72  72 100 CALM      29.95F
CAPITAL CITY   FAIR      77  71  82 N3        29.94F
HARRISBURG     CLOUDY    73  71  93 CALM      29.93F
YORK           FAIR      72  70  93 CALM      29.95F
$$

PAZ038>040-043-044-047-048-054-055-060>062-067>071-180500-
EASTERN PENNSYLVANIA

CITY           SKY/WX    TMP DP  RH WIND       PRES   REMARKS
SCRANTON       MOCLDY    73  71  93 W5        29.95F
MOUNT POCONO   FAIR      68  68 100 W7        29.99F
ALLENTOWN      FAIR      72  69  90 SW5       29.93F
QUAKERTOWN*    CLEAR     72  72 100 CALM      29.95F
READING        MOCLDY    72  72 100 SW3       29.93F
LANCASTER      LGT RAIN  74  73  97 CALM      29.95F
COATESVILLE    FAIR      75  70  83 W8G15     29.99R
POTTSTOWN      FAIR      71  71 100 CALM      29.95F
BLUE BELL      FAIR      72  72 100 CALM      29.95F
DOYLESTOWN     FAIR      74  72  93 CALM      29.94S
WILLOW GROVE   NOT AVBL
NORTH PHILA    FAIR      84  74  71 SW7       29.94S
PHILADELPHIA   MOCLDY    82  74  76 SW10      29.93F
$$




Office: PHI ASUS41 KPHI 180413 RWRPHI REGIONAL WEATHER ROUNDUP NATIONAL WEATHER SERVICE MOUNT HOLLY NJ 1200 AM EDT SAT AUG 18 2018 NOTE: "FAIR" INDICATES FEW OR NO CLOUDS BELOW 12,000 FEET WITH NO SIGNIFICANT WEATHER AND/OR OBSTRUCTIONS TO VISIBILITY. * = STATION DOES NOT REPORT PRECIPITATION (E.G. RAIN, SNOW, ETC.) OR FOG. NJZ015>026-180500- SOUTHERN NEW JERSEY CITY SKY/WX TMP DP RH WIND PRES REMARKS POMONA FAIR 82 77 84 S9 29.94F HX 90 WILDWOOD* FAIR 80 76 87 S10 29.96S MILLVILLE FAIR 80 76 87 CALM 29.94F WRIGHTSTOWN FAIR 79 73 83 SW8 29.91S MOUNT HOLLY FAIR 81 75 82 CALM 29.93S TRENTON FAIR 77 73 87 NW5 29.93S $$ NJZ001>014-180500- NORTHERN NEW JERSEY CITY SKY/WX TMP DP RH WIND PRES REMARKS SUSSEX CLOUDY 72 72 100 SW3 29.93F ANDOVER* N/A 71 71 100 CALM 29.94F MORRISTOWN TSTM 72 72 100 S6G22 29.94S VSB 1 NEWARK TSTM 75 72 90 W8 29.93S TETERBORO TSTM 73 72 96 VRB5 29.93S FOG CALDWELL TSTM 72 72 100 VRB5 29.95S FOG SOMERVILLE MOCLDY 72 72 100 CALM 29.92S ALLAIRE* FAIR 80 74 81 SW8 29.94F TOMS RIVER* FAIR 79 74 84 SW8 29.94F $$ PAZ043-044-047-054-055-060>062-066>071-180500- EASTERN PENNSYLVANIA CITY SKY/WX TMP DP RH WIND PRES REMARKS PHILADELPHIA MOCLDY 82 74 76 SW10 29.93F NORTH PHILA FAIR 84 74 71 SW7 29.94S HX 91 BLUE BELL* FAIR 72 72 100 CALM 29.95F DOYLESTOWN FAIR 74 72 93 CALM 29.94S QUAKERTOWN* CLEAR 72 72 100 CALM 29.95F PERKASIE* FAIR 72 72 100 CALM 29.96S POTTSTOWN FAIR 71 71 100 CALM 29.95F LANCASTER LGT RAIN 74 73 97 CALM 29.95F COATESVILLE FAIR 75 70 83 W8G15 29.99R READING MOCLDY 72 72 100 SW3 29.93F ALLENTOWN FAIR 72 69 90 SW5 29.93F MOUNT POCONO FAIR 68 68 100 W7 29.99F HAZLETON FAIR 72 66 83 MISG 30.02S LEHIGHTON FAIR 72 72 100 CALM 29.95F FOG WILKES BARRE MOCLDY 73 71 93 W5 29.95F $$ DEZALL-MDZ008-012-015-019-020-180500- DELAWARE AND EASTERN MARYLAND CITY SKY/WX TMP DP RH WIND PRES REMARKS WILMINGTON FAIR 80 75 84 SW5 29.94F DOVER MOCLDY 81 76 84 S9 29.94S GEORGETOWN FAIR 80 77 90 S7 29.96F EASTON FAIR 83 77 83 SW5 29.98F HX 92 OCEAN CITY FAIR 81 78 91 SW6 29.97F WALLOPS ISLAND FAIR 82 79 90 S8 29.98F HX 92 CAMBRIDGE MOCLDY 82 77 83 CALM 29.96R HX 91 SALISBURY FAIR 79 78 97 S6 29.96F $$ PAZ001-021-NYZ056-072-MDZ011-DCZ001-180500- OTHER NEARBY LOCATIONS CITY SKY/WX TMP DP RH WIND PRES REMARKS HARRISBURG CLOUDY 73 71 93 CALM 29.93F WILLIAMSPORT LGT RAIN 74 71 91 E3 29.92S BINGHAMTON MOCLDY 71 70 96 SW6 29.95R NEW YORK CITY HVY RAIN 73 72 96 CALM 29.97 FOG BALTIMORE MOCLDY 76 70 82 NW5 29.95S WASHINGTON DC MOCLDY 79 70 74 W7 29.96S $$